Regional Weather Roundup
Issued by NWS Northern Indiana

Home | Current Version | Previous Version | Text Only | Print | Product List | Glossary Off
Versions: 1 2 3 4 5 6 7 8 9 10 11 12 13 14 15 16 17 18 19 20 21 22 23 24 25 26 27 28 29 30 31 32 33 34 35 36 37 38 39 40 41 42 43 44 45 46 47 48 49 50

000
ASUS43 KIWX 211010
RWRIWX

KIWX WEATHER ROUNDUP
NATIONAL WEATHER SERVICE NORTHERN INDIANA
600 AM EDT TUE OCT 21 2014

NOTE: "FAIR" INDICATES FEW OR NO CLOUDS BELOW 12,000 FEET WITH NO
SIGNIFICANT WEATHER AND/OR OBSTRUCTIONS TO VISIBILITY.

* THESE STATIONS ARE NOT UNDER NWS QUALITY CONTROL. THEY ALSO MAY NOT
  REPORT WEATHER SUCH AS PRECIPITATION OR FOG.

INZ001>027-211100-
NORTHERN INDIANA

CITY           SKY/WX    TMP DP  RH WIND       PRES   REMARKS
GARY*          CLOUDY    52  46  82 N14       30.04R
VALPARAISO     LGT RAIN  48  45  89 N8        30.03R
MICHIGAN CITY* RAIN      48  43  81 N13G18    30.03R
LAPORTE*       DRIZZLE   49  49  98 N5        30.02R
KNOX*          CLOUDY    47  45  90 N7        30.01R
SOUTH BEND     CLOUDY    48  45  89 NW5       30.01R
GOSHEN         CLOUDY    48  41  76 NW8       29.99R
MONTICELLO*    CLOUDY    48  46  93 NW5       30.01R
LOGANSPORT*    CLOUDY    48  43  81 N6        30.01R
ROCHESTER*     MOCLDY    50  45  81 N8        30.01R
WARSAW*        CLOUDY    46  43  87 NW5       29.99R
ANGOLA*        CLOUDY    46  43  87 NW5       29.97R
FORT WAYNE     CLOUDY    48  41  76 NW9       29.98R
HUNTINGTON*    CLOUDY    48  43  84 CALM      29.97R
PERU/GRISSOM   CLOUDY    49  49 100 NW7       29.99R
MARION*        CLOUDY    48  43  84 NW8       29.99R

$$
INZ028>050-211100-
CENTRAL INDIANA

CITY           SKY/WX    TMP DP  RH WIND       PRES   REMARKS
LAFAYETTE      CLOUDY    47  45  93 NW6       30.02R
KOKOMO*        CLOUDY    48  43  81 N9        30.00R
MUNCIE*        CLOUDY    49  45  86 NW8       29.97R
INDIANAPOLIS   PTCLDY    44  42  93 NW7       30.00R

$$
MIZ043>046-050>051-056>058-064>065-071>073-077>080-211100-
SOUTHWEST LOWER MICHIGAN

CITY           SKY/WX    TMP DP  RH WIND       PRES   REMARKS
BATTLE CREEK   CLOUDY    47  42  83 NW6       29.98R
BENTON HARBOR  CLOUDY    49  42  77 VRB3      30.01R
COLDWATER*     LGT RAIN  47  45  93 NW6       29.96R
HILLSDALE*     CLOUDY    47  45  94 NW8       29.94R
HOLLAND        LGT RAIN  48  42  80 N6        30.01R
GRAND RAPIDS   LGT RAIN  47  43  86 NW10      29.99R
KALAMAZOO      CLOUDY    46  42  86 NW10      29.99R
STURGIS*       CLOUDY    46  43  87 NW6       29.97R
THREE RIVERS*  CLOUDY    47  42  81 NW10      29.99R

$$
OHZ001>008-015>018-024>025-211100-
NORTHWEST OHIO

CITY           SKY/WX    TMP DP  RH WIND       PRES   REMARKS
WAUSEON*       CLOUDY    46  46 100 NW5       29.93R FOG
DEFIANCE       CLOUDY    48  43  82 NW5       29.95R
FINDLAY        CLOUDY    50  44  80 MISG      29.91R
TOLEDO EXPRESS CLOUDY    47  45  93 NW6       29.92R
TOLEDO METCALF CLOUDY    50  43  77 NW9       29.92R
LIMA           CLOUDY    48  43  82 NW8       29.93R

$$
AND FOR LAKE MICHIGAN COASTAL AND OPEN LAKE BUOY OBSERVATIONS

STATION/POSITION TEMP    WIND        PRES    VSBY  WAVE
                 AIR SEA DIR/SP/G                  HT/PER
                 (F)     (DEG/KT/KT) (MB)    (MI)  (FT/S)
CALUMET HARBOR    50     360/  9/ 14 1016.0R
MICHIGAN CITY     51     350/ 17/ 20   N/A
SAINT JOSEPH      51                 1016.9R
SOUTH LAKE BUOY   49 54  330/ 19/ 23 1016.9R         5/ 6

$$
&&


USA.gov is the U.S. government's official web portal to all federal, state and local government web resources and services.